Station Historical Data
Daily Summary for October 16, 2017 Units:  Metric    English   Both
« Previous Day
Next Day »
Daily Weekly Monthly Yearly Custom
  High: Low: Average:
Temperature: 10.5 °C 2.4 °C 7.4 °C
Dew Point: 5.3 °C 0.4 °C 2.4 °C
Humidity: 87% 56% 71%
Wind Speed: 19.3km/h 0km/h 3.5km/h
Wind Gust: 27.4km/h - -
Wind- - NW
Pressure: 1025.6 hPa 1015.1 hPa -
Precipitation: 0 mm    
Historical Graphs
 
 
Tabular Data for October 16, 2017
Time Temperature Dew Point Pressure Wind Wind Speed Wind Gust Humidity Rainfall Rate (Hourly)
00:04 10.5 °C 5.3 °C 1015.1 hPa NNW 19.3 km/h 27.4 km/h 70% 0 mm
00:09 10.4 °C 5.2 °C 1015.1 hPa NW 8 km/h 25.7 km/h 70% 0 mm
00:14 10.4 °C 5.2 °C 1015.5 hPa NW 9.7 km/h 27.4 km/h 70% 0 mm
00:19 10.3 °C 5.1 °C 1015.5 hPa NW 8 km/h 17.7 km/h 70% 0 mm
00:24 10.2 °C 5 °C 1015.5 hPa NW 6.4 km/h 22.5 km/h 70% 0 mm
00:29 10.2 °C 5.2 °C 1015.8 hPa NNW 6.4 km/h 22.5 km/h 71% 0 mm
00:34 10.1 °C 5.1 °C 1015.8 hPa NNW 6.4 km/h 20.9 km/h 71% 0 mm
00:39 9.9 °C 4.9 °C 1015.8 hPa North 6.4 km/h 20.9 km/h 71% 0 mm
00:49 9.7 °C 4.8 °C 1016.1 hPa NW 6.4 km/h 24.1 km/h 72% 0 mm
00:54 9.6 °C 4.8 °C 1015.8 hPa WNW 6.4 km/h 25.7 km/h 72% 0 mm
00:59 9.5 °C 4.5 °C 1015.8 hPa NNW 9.7 km/h 19.3 km/h 71% 0 mm
01:04 9.5 °C 4.7 °C 1016.1 hPa WNW 1.6 km/h 16.1 km/h 72% 0 mm
01:09 9.5 °C 4.5 °C 1016.1 hPa NW 6.4 km/h 22.5 km/h 71% 0 mm
01:14 9.4 °C 4.7 °C 1016.5 hPa NNW 8 km/h 25.7 km/h 72% 0 mm
01:19 9.3 °C 4.6 °C 1016.5 hPa Calm   17.7 km/h 72% 0 mm
01:24 9.2 °C 4.4 °C 1016.5 hPa NNW 6.4 km/h 17.7 km/h 72% 0 mm
01:29 9.2 °C 4.4 °C 1016.8 hPa NNW 6.4 km/h 17.7 km/h 72% 0 mm
01:34 9.1 °C 4.3 °C 1016.8 hPa NW 6.4 km/h 14.5 km/h 72% 0 mm
01:39 9 °C 4.2 °C 1016.8 hPa NNW 6.4 km/h 19.3 km/h 72% 0 mm
01:44 8.9 °C 3.9 °C 1017.2 hPa NNW 6.4 km/h 24.1 km/h 71% 0 mm
01:49 8.8 °C 3.8 °C 1017.2 hPa NNW 6.4 km/h 24.1 km/h 71% 0 mm
01:54 8.8 °C 4 °C 1017.2 hPa NNW 4.8 km/h 17.7 km/h 72% 0 mm
01:59 8.7 °C 3.9 °C 1017.2 hPa NNW 4.8 km/h 14.5 km/h 72% 0 mm
02:04 8.6 °C 3.8 °C 1017.2 hPa North 9.7 km/h 14.5 km/h 72% 0 mm
02:09 8.6 °C 4 °C 1017.2 hPa NNW 4.8 km/h 14.5 km/h 73% 0 mm
02:14 8.5 °C 3.7 °C 1017.5 hPa North 6.4 km/h 17.7 km/h 72% 0 mm
02:19 8.4 °C 3.7 °C 1017.5 hPa North 6.4 km/h 17.7 km/h 72% 0 mm
02:24 8.4 °C 3.9 °C 1017.5 hPa Calm   9.7 km/h 73% 0 mm
02:29 8.4 °C 3.9 °C 1017.5 hPa Calm   8 km/h 73% 0 mm
02:34 8.4 °C 3.9 °C 1017.5 hPa NNE 6.4 km/h 11.3 km/h 73% 0 mm
02:39 8.4 °C 3.8 °C 1017.5 hPa NNW 3.2 km/h 11.3 km/h 73% 0 mm
02:44 8.4 °C 3.8 °C 1017.5 hPa NNW 3.2 km/h 14.5 km/h 73% 0 mm
02:49 8.3 °C 3.8 °C 1017.8 hPa NNW 3.2 km/h 14.5 km/h 73% 0 mm
02:54 8.3 °C 3.6 °C 1017.8 hPa NNW 6.4 km/h 14.5 km/h 72% 0 mm
02:59 8.3 °C 3.5 °C 1017.8 hPa North 4.8 km/h 16.1 km/h 72% 0 mm
03:04 8.3 °C 3.5 °C 1017.8 hPa NW 3.2 km/h 14.5 km/h 72% 0 mm
03:09 8.2 °C 3.4 °C 1017.8 hPa NNW 4.8 km/h 14.5 km/h 72% 0 mm
03:14 8.2 °C 3.4 °C 1017.8 hPa NNW 4.8 km/h 9.7 km/h 72% 0 mm
03:19 8.2 °C 3.6 °C 1017.8 hPa NNW 4.8 km/h 16.1 km/h 73% 0 mm
03:24 8.2 °C 3.6 °C 1017.8 hPa NNW 4.8 km/h 16.1 km/h 73% 0 mm
03:29 8.2 °C 3.6 °C 1017.8 hPa North 6.4 km/h 20.9 km/h 73% 0 mm
03:34 8.1 °C 3.5 °C 1017.8 hPa North 1.6 km/h 14.5 km/h 73% 0 mm
03:39 8.1 °C 3.5 °C 1018.2 hPa NNW 4.8 km/h 9.7 km/h 73% 0 mm
03:44 8 °C 3.4 °C 1018.2 hPa NNW 3.2 km/h 14.5 km/h 73% 0 mm
03:49 8 °C 3.4 °C 1018.2 hPa NNW 3.2 km/h 14.5 km/h 73% 0 mm
03:54 7.9 °C 3.4 °C 1018.2 hPa NNW 3.2 km/h 11.3 km/h 73% 0 mm
03:59 7.9 °C 3.3 °C 1018.5 hPa North 3.2 km/h 11.3 km/h 73% 0 mm
04:04 7.9 °C 3.3 °C 1018.5 hPa NNW 1.6 km/h 8 km/h 73% 0 mm
04:09 7.8 °C 3.3 °C 1018.5 hPa Calm   11.3 km/h 73% 0 mm
04:14 7.8 °C 3.3 °C 1018.5 hPa NNW 4.8 km/h 12.9 km/h 73% 0 mm
04:19 7.8 °C 3.3 °C 1018.5 hPa NNW 4.8 km/h 12.9 km/h 73% 0 mm
04:24 7.8 °C 3.1 °C 1018.5 hPa NNW 8 km/h 9.7 km/h 72% 0 mm
04:29 7.8 °C 3.1 °C 1018.5 hPa NNW 4.8 km/h 11.3 km/h 72% 0 mm
04:34 7.8 °C 3.1 °C 1018.8 hPa NW 3.2 km/h 6.4 km/h 72% 0 mm
04:39 7.8 °C 3.1 °C 1018.8 hPa NNW 3.2 km/h 12.9 km/h 72% 0 mm
04:44 7.8 °C 3.2 °C 1018.8 hPa NNW 4.8 km/h 12.9 km/h 73% 0 mm
04:49 7.7 °C 3.2 °C 1018.8 hPa NNW 3.2 km/h 8 km/h 73% 0 mm
04:54 7.7 °C 2.9 °C 1018.8 hPa NNW 4.8 km/h 11.3 km/h 72% 0 mm
04:59 7.7 °C 3 °C 1018.8 hPa NNW 4.8 km/h 11.3 km/h 72% 0 mm
05:04 7.7 °C 3.2 °C 1019.2 hPa NNW 3.2 km/h 6.4 km/h 73% 0 mm
05:09 7.7 °C 3.2 °C 1019.2 hPa WNW 4.8 km/h 8 km/h 73% 0 mm
05:14 7.7 °C 3.2 °C 1019.2 hPa Calm   8 km/h 73% 0 mm
05:19 7.7 °C 3.2 °C 1019.2 hPa Calm   4.8 km/h 73% 0 mm
05:24 7.7 °C 3.2 °C 1019.2 hPa NNW 1.6 km/h 4.8 km/h 73% 0 mm
05:29 7.7 °C 3.2 °C 1019.5 hPa North 1.6 km/h 4.8 km/h 73% 0 mm
05:34 7.7 °C 3.2 °C 1019.5 hPa North 3.2 km/h 8 km/h 73% 0 mm
05:39 7.7 °C 3.2 °C 1019.5 hPa NNW 6.4 km/h 8 km/h 73% 0 mm
05:44 7.7 °C 3.2 °C 1019.5 hPa Calm   8 km/h 73% 0 mm
05:49 7.7 °C 3.2 °C 1019.5 hPa NNW 1.6 km/h 8 km/h 73% 0 mm
05:54 7.7 °C 3.2 °C 1019.5 hPa NNW 1.6 km/h 8 km/h 73% 0 mm
05:59 7.7 °C 3.4 °C 1019.5 hPa NNW 1.6 km/h 6.4 km/h 74% 0 mm
06:04 7.7 °C 3.4 °C 1019.5 hPa Calm   6.4 km/h 74% 0 mm
06:09 7.7 °C 3.2 °C 1019.9 hPa Calm   4.8 km/h 73% 0 mm
06:14 7.7 °C 3.3 °C 1019.9 hPa Calm   4.8 km/h 74% 0 mm
06:19 7.6 °C 3.2 °C 1019.9 hPa NW 1.6 km/h 8 km/h 74% 0 mm
06:24 7.5 °C 3.2 °C 1019.9 hPa Calm   1.6 km/h 74% 0 mm
06:29 7.4 °C 3.1 °C 1019.9 hPa Calm   1.6 km/h 74% 0 mm
06:34 7.4 °C 3.1 °C 1019.9 hPa West 1.6 km/h 4.8 km/h 74% 0 mm
06:39 7.3 °C 3.2 °C 1019.9 hPa Calm   1.6 km/h 75% 0 mm
06:44 7.3 °C 3.2 °C 1019.9 hPa WNW 1.6 km/h 4.8 km/h 75% 0 mm
06:49 7.3 °C 3.1 °C 1020.2 hPa NNW 3.2 km/h 8 km/h 75% 0 mm
06:54 7.2 °C 3.1 °C 1020.2 hPa NNW 3.2 km/h 8 km/h 75% 0 mm
06:59 7.2 °C 3.1 °C 1020.2 hPa NNW 1.6 km/h 6.4 km/h 75% 0 mm
07:04 7.2 °C 3.2 °C 1020.2 hPa Calm   1.6 km/h 76% 0 mm
07:09 7.2 °C 3.2 °C 1020.2 hPa Calm     76% 0 mm
07:14 7.2 °C 3.2 °C 1020.2 hPa WNW 3.2 km/h 4.8 km/h 76% 0 mm
07:19 7.1 °C 3 °C 1020.2 hPa Calm   3.2 km/h 75% 0 mm
07:24 7.1 °C 3.1 °C 1020.2 hPa Calm   3.2 km/h 76% 0 mm
07:29 6.9 °C 2.9 °C 1020.5 hPa Calm     76% 0 mm
07:34 6.8 °C 2.9 °C 1020.5 hPa Calm   4.8 km/h 76% 0 mm
07:39 6.8 °C 3 °C 1020.5 hPa Calm   1.6 km/h 77% 0 mm
07:44 6.8 °C 3 °C 1020.5 hPa Calm   4.8 km/h 77% 0 mm
07:49 6.8 °C 3 °C 1020.5 hPa Calm   3.2 km/h 77% 0 mm
07:54 6.8 °C 3 °C 1020.5 hPa NW 1.6 km/h 9.7 km/h 77% 0 mm
07:59 6.7 °C 2.9 °C 1020.9 hPa NW 1.6 km/h 9.7 km/h 77% 0 mm
08:04 6.7 °C 2.9 °C 1020.9 hPa Calm   3.2 km/h 77% 0 mm
08:09 6.6 °C 2.9 °C 1020.9 hPa Calm   3.2 km/h 77% 0 mm
08:14 6.6 °C 2.8 °C 1020.9 hPa NNE 3.2 km/h 8 km/h 77% 0 mm
08:19 6.6 °C 2.8 °C 1020.9 hPa NW 3.2 km/h 9.7 km/h 77% 0 mm
08:24 6.7 °C 2.9 °C 1021.2 hPa NW 3.2 km/h 8 km/h 77% 0 mm
08:29 7 °C 3.1 °C 1021.2 hPa NNW 1.6 km/h 8 km/h 76% 0 mm
08:34 7.2 °C 3.1 °C 1021.2 hPa Calm   9.7 km/h 75% 0 mm
08:39 7.3 °C 2.9 °C 1021.2 hPa Calm   8 km/h 74% 0 mm
08:44 7.2 °C 2.9 °C 1021.2 hPa WNW 3.2 km/h 8 km/h 74% 0 mm
08:49 7.2 °C 2.8 °C 1021.2 hPa NNW 4.8 km/h 12.9 km/h 74% 0 mm
08:54 7.4 °C 3.1 °C 1021.6 hPa NNW 6.4 km/h 11.3 km/h 74% 0 mm
08:59 7.9 °C 3.4 °C 1021.6 hPa NNW 3.2 km/h 11.3 km/h 73% 0 mm
09:04 8 °C 3.3 °C 1021.6 hPa NNW 3.2 km/h 11.3 km/h 72% 0 mm
09:09 7.9 °C 3.2 °C 1021.6 hPa NNW 3.2 km/h 11.3 km/h 72% 0 mm
09:14 7.9 °C 3.2 °C 1021.6 hPa NNW 3.2 km/h 11.3 km/h 72% 0 mm
09:19 8 °C 3.4 °C 1021.6 hPa Calm   8 km/h 73% 0 mm
09:24 8.3 °C 3.6 °C 1021.9 hPa NW 1.6 km/h 6.4 km/h 72% 0 mm
09:29 8.4 °C 3.6 °C 1021.9 hPa West 6.4 km/h 6.4 km/h 72% 0 mm
09:34 8.3 °C 3.5 °C 1021.9 hPa WNW 1.6 km/h 9.7 km/h 72% 0 mm
09:39 8.2 °C 3.7 °C 1021.9 hPa NNW 3.2 km/h 6.4 km/h 73% 0 mm
09:44 8.2 °C 3.6 °C 1021.9 hPa North 3.2 km/h 8 km/h 73% 0 mm
09:49 7.9 °C 3.4 °C 1021.9 hPa WNW 6.4 km/h 12.9 km/h 73% 0 mm
09:54 7.9 °C 3.4 °C 1022.2 hPa NW 4.8 km/h 12.9 km/h 73% 0 mm
09:59 7.9 °C 3.2 °C 1022.2 hPa NNW 4.8 km/h 12.9 km/h 72% 0 mm
10:04 7.9 °C 3.4 °C 1022.2 hPa NNW 4.8 km/h 12.9 km/h 73% 0 mm
10:09 8.1 °C 3.5 °C 1022.2 hPa NNW 1.6 km/h 8 km/h 73% 0 mm
10:14 8.2 °C 3.4 °C 1022.2 hPa NNW 3.2 km/h 8 km/h 72% 0 mm
10:19 9 °C 3.8 °C 1022.2 hPa North 9.7 km/h 12.9 km/h 70% 0 mm
10:24 8.8 °C 3.4 °C 1022.2 hPa West 1.6 km/h 14.5 km/h 69% 0 mm
10:29 8.8 °C 3.7 °C 1022.2 hPa WNW 6.4 km/h 16.1 km/h 70% 0 mm
10:34 8.6 °C 3.4 °C 1022.2 hPa NW 4.8 km/h 16.1 km/h 70% 0 mm
10:39 8.2 °C 3.3 °C 1022.2 hPa NW 4.8 km/h 14.5 km/h 71% 0 mm
10:44 8.2 °C 3.4 °C 1022.2 hPa NW 4.8 km/h 14.5 km/h 72% 0 mm
10:49 8.6 °C 3.6 °C 1022.2 hPa West 4.8 km/h 11.3 km/h 71% 0 mm
10:54 8.8 °C 3.8 °C 1022.2 hPa NW 1.6 km/h 8 km/h 71% 0 mm
10:59 8.5 °C 3.3 °C 1022.6 hPa NW 4.8 km/h 9.7 km/h 70% 0 mm
11:04 8.3 °C 3.1 °C 1022.6 hPa NW 4.8 km/h 12.9 km/h 70% 0 mm
11:09 8.1 °C 3.2 °C 1022.6 hPa NNW 3.2 km/h 9.7 km/h 71% 0 mm
11:14 8.5 °C 3.6 °C 1022.6 hPa Calm   9.7 km/h 71% 0 mm
11:19 8.7 °C 3.3 °C 1022.6 hPa NNW 3.2 km/h 9.7 km/h 69% 0 mm
11:24 8.3 °C 3 °C 1022.6 hPa North 8 km/h 12.9 km/h 69% 0 mm
11:29 8 °C 3.1 °C 1022.9 hPa NNW 3.2 km/h 17.7 km/h 71% 0 mm
11:34 7.9 °C 3.2 °C 1022.9 hPa NNW 4.8 km/h 17.7 km/h 72% 0 mm
11:39 8.1 °C 3.4 °C 1022.9 hPa NNW 4.8 km/h 11.3 km/h 72% 0 mm
11:44 8.6 °C 3.4 °C 1022.9 hPa NNW 4.8 km/h 12.9 km/h 70% 0 mm
11:49 8.6 °C 3.2 °C 1022.9 hPa NNW 4.8 km/h 12.9 km/h 69% 0 mm
11:54 8.5 °C 3.3 °C 1022.9 hPa NW 3.2 km/h 9.7 km/h 70% 0 mm
11:59 8.3 °C 3 °C 1022.9 hPa NNW 6.4 km/h 8 km/h 69% 0 mm
12:04 8.3 °C 3 °C 1022.9 hPa WNW 8 km/h 9.7 km/h 69% 0 mm
12:09 8.7 °C 3.3 °C 1022.9 hPa NW 1.6 km/h 11.3 km/h 69% 0 mm
12:14 8.9 °C 2.9 °C 1022.9 hPa WNW 3.2 km/h 12.9 km/h 66% 0 mm
12:19 9.4 °C 2.9 °C 1022.9 hPa West 16.1 km/h 20.9 km/h 64% 0 mm
12:24 9.1 °C 2.8 °C 1023.2 hPa NNW 8 km/h 24.1 km/h 65% 0 mm
12:29 8.7 °C 2.3 °C 1023.2 hPa North 6.4 km/h 17.7 km/h 64% 0 mm
12:34 8.6 °C 2.3 °C 1023.2 hPa NW 6.4 km/h 17.7 km/h 65% 0 mm
12:39 8.6 °C 2.8 °C 1023.2 hPa NW 4.8 km/h 11.3 km/h 67% 0 mm
12:44 8.7 °C 2.7 °C 1023.2 hPa West 14.5 km/h 20.9 km/h 66% 0 mm
12:49 8.8 °C 2.6 °C 1023.2 hPa WNW 9.7 km/h 20.9 km/h 65% 0 mm
12:54 8.8 °C 2.2 °C 1023.2 hPa NNW 6.4 km/h 17.7 km/h 63% 0 mm
12:59 8.7 °C 2.4 °C 1023.2 hPa WNW 9.7 km/h 17.7 km/h 65% 0 mm
13:04 9.3 °C 2.7 °C 1023.2 hPa NW 8 km/h 17.7 km/h 63% 0 mm
13:09 9.4 °C 2.5 °C 1022.9 hPa WNW 6.4 km/h 11.3 km/h 62% 0 mm
13:14 8.8 °C 2.2 °C 1022.9 hPa NW 3.2 km/h 12.9 km/h 63% 0 mm
13:19 8.4 °C 2.2 °C 1022.9 hPa WNW 8 km/h 14.5 km/h 65% 0 mm
13:24 8.3 °C 2.1 °C 1023.2 hPa North 4.8 km/h 20.9 km/h 65% 0 mm
13:29 8.5 °C 2.3 °C 1023.2 hPa WNW 9.7 km/h 16.1 km/h 65% 0 mm
13:34 8.6 °C 2.1 °C 1023.2 hPa NW 8 km/h 20.9 km/h 64% 0 mm
13:39 8.9 °C 2.3 °C 1022.9 hPa NW 9.7 km/h 19.3 km/h 63% 0 mm
13:44 9.2 °C 2.3 °C 1022.9 hPa NW 9.7 km/h 19.3 km/h 62% 0 mm
13:49 9.3 °C 2.6 °C 1022.9 hPa WNW 8 km/h 20.9 km/h 63% 0 mm
13:54 10.1 °C 3.1 °C 1022.9 hPa NW 8 km/h 14.5 km/h 62% 0 mm
13:59 9.5 °C 2.1 °C 1022.9 hPa West 4.8 km/h 17.7 km/h 60% 0 mm
14:04 9.5 °C 2.3 °C 1022.9 hPa NNW 9.7 km/h 17.7 km/h 61% 0 mm
14:09 9.3 °C 2.2 °C 1022.9 hPa WNW 8 km/h 17.7 km/h 61% 0 mm
14:14 9.2 °C 2.3 °C 1022.9 hPa SW 9.7 km/h 19.3 km/h 62% 0 mm
14:19 8.9 °C 2 °C 1023.2 hPa NW 14.5 km/h 16.1 km/h 62% 0 mm
14:24 8.6 °C 1.4 °C 1023.2 hPa NW 16.1 km/h 16.1 km/h 61% 0 mm
14:29 9.1 °C 2.2 °C 1022.9 hPa WNW 11.3 km/h 16.1 km/h 62% 0 mm
14:34 9.8 °C 2.4 °C 1022.9 hPa West 14.5 km/h 19.3 km/h 60% 0 mm
14:39 9.3 °C 1.7 °C 1022.9 hPa WNW 11.3 km/h 20.9 km/h 59% 0 mm
14:44 8.9 °C 1.6 °C 1023.2 hPa WNW 9.7 km/h 20.9 km/h 60% 0 mm
14:49 9.4 °C 2.5 °C 1023.2 hPa WNW 8 km/h 14.5 km/h 62% 0 mm
14:54 10.2 °C 2.5 °C 1023.2 hPa WNW 8 km/h 16.1 km/h 59% 0 mm
14:59 9.5 °C 1.2 °C 1023.2 hPa NW 8 km/h 16.1 km/h 56% 0 mm
15:04 8.7 °C 0.9 °C 1023.2 hPa NW 12.9 km/h 16.1 km/h 58% 0 mm
15:09 8.6 °C 1.2 °C 1023.2 hPa North 4.8 km/h 19.3 km/h 60% 0 mm
15:14 9.8 °C 1.9 °C 1023.2 hPa WNW 3.2 km/h 16.1 km/h 58% 0 mm
15:19 10.3 °C 1.9 °C 1023.2 hPa NW 9.7 km/h 16.1 km/h 56% 0 mm
15:24 9.9 °C 1.6 °C 1023.6 hPa West 6.4 km/h 16.1 km/h 56% 0 mm
15:29 9.4 °C 1.6 °C 1023.6 hPa NNW 3.2 km/h 16.1 km/h 58% 0 mm
15:34 8.9 °C 1.1 °C 1023.6 hPa NW 3.2 km/h 11.3 km/h 58% 0 mm
15:39 8.4 °C 1.1 °C 1023.6 hPa North 6.4 km/h 14.5 km/h 60% 0 mm
15:44 8.4 °C 1.3 °C 1023.6 hPa NW 4.8 km/h 14.5 km/h 61% 0 mm
15:49 8.8 °C 1.7 °C 1023.6 hPa NW 4.8 km/h 11.3 km/h 61% 0 mm
15:54 9.1 °C 1.4 °C 1023.6 hPa NW 4.8 km/h 12.9 km/h 59% 0 mm
15:59 9.5 °C 1.6 °C 1023.6 hPa NW 4.8 km/h 16.1 km/h 58% 0 mm
16:04 10 °C 2.3 °C 1023.6 hPa NNW 4.8 km/h 14.5 km/h 59% 0 mm
16:09 9.8 °C 1.7 °C 1023.6 hPa West 6.4 km/h 16.1 km/h 57% 0 mm
16:14 9.6 °C 1.2 °C 1023.6 hPa NNE 8 km/h 19.3 km/h 56% 0 mm
16:19 9.6 °C 1.3 °C 1023.6 hPa NW 6.4 km/h 19.3 km/h 56% 0 mm
16:24 9.6 °C 1.4 °C 1023.6 hPa WNW 3.2 km/h 14.5 km/h 57% 0 mm
16:29 9.8 °C 1.4 °C 1023.6 hPa West 6.4 km/h 11.3 km/h 56% 0 mm
16:34 9.6 °C 1.3 °C 1023.6 hPa WNW 3.2 km/h 9.7 km/h 56% 0 mm
16:39 9.6 °C 1.4 °C 1023.6 hPa West 3.2 km/h 16.1 km/h 57% 0 mm
16:44 9.8 °C 1.9 °C 1023.9 hPa West 8 km/h 11.3 km/h 58% 0 mm
16:49 9.6 °C 1.5 °C 1023.9 hPa WNW 6.4 km/h 14.5 km/h 57% 0 mm
16:54 9.3 °C 1.2 °C 1023.9 hPa WNW 6.4 km/h 14.5 km/h 57% 0 mm
16:59 8.8 °C 1.3 °C 1023.9 hPa NW 4.8 km/h 11.3 km/h 59% 0 mm
17:04 8.8 °C 1.2 °C 1023.9 hPa NNW 1.6 km/h 6.4 km/h 59% 0 mm
17:09 9.1 °C 1.9 °C 1023.9 hPa West 8 km/h 9.7 km/h 61% 0 mm
17:14 9.2 °C 1.6 °C 1024.3 hPa NNW 3.2 km/h 9.7 km/h 59% 0 mm
17:19 9.3 °C 1.4 °C 1023.9 hPa WNW 3.2 km/h 11.3 km/h 58% 0 mm
17:24 9.1 °C 1.7 °C 1023.9 hPa NW 4.8 km/h 11.3 km/h 60% 0 mm
17:29 8.9 °C 1.1 °C 1024.3 hPa NW 3.2 km/h 8 km/h 58% 0 mm
17:34 8.8 °C 1.3 °C 1023.9 hPa NW 3.2 km/h 8 km/h 59% 0 mm
17:39 8.7 °C 1.4 °C 1024.3 hPa NW 1.6 km/h 9.7 km/h 60% 0 mm
17:44 8.7 °C 1.3 °C 1023.9 hPa Calm   4.8 km/h 60% 0 mm
17:49 8.6 °C 1.2 °C 1023.9 hPa NNW 1.6 km/h 4.8 km/h 60% 0 mm
17:54 8.5 °C 1.4 °C 1024.3 hPa WNW 1.6 km/h 8 km/h 61% 0 mm
17:59 8.4 °C 0.9 °C 1024.3 hPa WNW 1.6 km/h 8 km/h 59% 0 mm
18:04 8.3 °C 0.8 °C 1024.3 hPa NW 3.2 km/h 8 km/h 59% 0 mm
18:09 8.3 °C 0.7 °C 1024.3 hPa NNW 4.8 km/h 6.4 km/h 59% 0 mm
18:14 8.2 °C 0.6 °C 1024.3 hPa WNW 1.6 km/h 8 km/h 59% 0 mm
18:19 8.1 °C 0.8 °C 1024.3 hPa NNW 1.6 km/h 8 km/h 60% 0 mm
18:24 7.8 °C 1 °C 1024.3 hPa NNW 1.6 km/h 8 km/h 62% 0 mm
18:29 7.6 °C 1 °C 1024.6 hPa NW 1.6 km/h 4.8 km/h 63% 0 mm
18:34 7.4 °C 1 °C 1024.6 hPa Calm   3.2 km/h 64% 0 mm
18:39 7.2 °C 1 °C 1024.6 hPa Calm     65% 0 mm
18:44 7.1 °C 0.9 °C 1024.6 hPa Calm     65% 0 mm
18:49 6.9 °C 0.9 °C 1024.6 hPa Calm     66% 0 mm
18:54 6.7 °C 0.9 °C 1024.6 hPa Calm     67% 0 mm
18:59 6.6 °C 0.9 °C 1024.6 hPa Calm     67% 0 mm
19:04 6.3 °C 0.8 °C 1024.6 hPa Calm     68% 0 mm
19:09 6.1 °C 0.8 °C 1024.6 hPa Calm     69% 0 mm
19:14 5.9 °C 0.7 °C 1024.6 hPa Calm     69% 0 mm
19:19 5.7 °C 0.9 °C 1024.9 hPa Calm     71% 0 mm
19:24 5.4 °C 0.8 °C 1024.9 hPa Calm     72% 0 mm
19:29 5.3 °C 0.9 °C 1024.9 hPa Calm     73% 0 mm
19:34 5.2 °C 0.9 °C 1024.9 hPa Calm     74% 0 mm
19:39 5.2 °C 0.9 °C 1024.9 hPa Calm     74% 0 mm
19:44 5.1 °C 1 °C 1024.9 hPa Calm     75% 0 mm
19:49 4.9 °C 1 °C 1024.9 hPa Calm     76% 0 mm
19:54 4.8 °C 0.9 °C 1024.9 hPa Calm     76% 0 mm
19:59 4.8 °C 0.9 °C 1024.9 hPa Calm     76% 0 mm
20:04 4.7 °C 0.8 °C 1024.9 hPa Calm     76% 0 mm
20:09 4.6 °C 0.7 °C 1024.9 hPa Calm     76% 0 mm
20:14 4.6 °C 0.9 °C 1024.9 hPa Calm     77% 0 mm
20:19 4.5 °C 0.8 °C 1024.9 hPa Calm     77% 0 mm
20:24 4.4 °C 0.8 °C 1024.9 hPa Calm     77% 0 mm
20:29 4.3 °C 0.8 °C 1024.9 hPa Calm     78% 0 mm
20:34 4.2 °C 0.9 °C 1024.9 hPa Calm     79% 0 mm
20:39 4 °C 0.8 °C 1024.9 hPa Calm     80% 0 mm
20:44 3.9 °C 1 °C 1024.9 hPa Calm     81% 0 mm
20:49 3.8 °C 0.9 °C 1024.9 hPa Calm     81% 0 mm
20:54 3.7 °C 0.6 °C 1024.9 hPa Calm     80% 0 mm
20:59 3.7 °C 0.7 °C 1025.3 hPa Calm     81% 0 mm
21:04 3.7 °C 0.9 °C 1024.9 hPa Calm     82% 0 mm
21:09 3.7 °C 0.9 °C 1025.3 hPa Calm     82% 0 mm
21:14 3.6 °C 0.8 °C 1025.3 hPa Calm     82% 0 mm
21:19 3.6 °C 0.8 °C 1025.3 hPa Calm     82% 0 mm
21:24 3.4 °C 0.7 °C 1025.3 hPa Calm     82% 0 mm
21:29 3.4 °C 0.8 °C 1025.3 hPa Calm     83% 0 mm
21:34 3.4 °C 0.8 °C 1025.3 hPa Calm     83% 0 mm
21:39 3.4 °C 0.8 °C 1025.6 hPa Calm     83% 0 mm
21:44 3.4 °C 0.8 °C 1025.6 hPa Calm     83% 0 mm
21:49 3.4 °C 0.9 °C 1025.6 hPa Calm     84% 0 mm
21:54 3.5 °C 1.1 °C 1025.6 hPa Calm     84% 0 mm
21:59 3.4 °C 1 °C 1025.6 hPa Calm     84% 0 mm
22:04 3.3 °C 0.8 °C 1025.3 hPa Calm     84% 0 mm
22:09 3.2 °C 0.8 °C 1025.3 hPa Calm     84% 0 mm
22:14 3.1 °C 0.7 °C 1025.3 hPa Calm     84% 0 mm
22:19 3.3 °C 0.8 °C 1025.3 hPa Calm     84% 0 mm
22:24 3.2 °C 0.8 °C 1025.3 hPa Calm     84% 0 mm
22:29 3.2 °C 0.8 °C 1025.3 hPa Calm     84% 0 mm
22:34 3.1 °C 0.8 °C 1025.3 hPa Calm     85% 0 mm
22:39 3.1 °C 0.8 °C 1025.3 hPa Calm     85% 0 mm
22:44 2.9 °C 0.7 °C 1025.6 hPa Calm     85% 0 mm
22:49 2.9 °C 0.7 °C 1025.6 hPa Calm     85% 0 mm
22:54 2.9 °C 0.6 °C 1025.6 hPa Calm     85% 0 mm
22:59 2.8 °C 0.5 °C 1025.3 hPa Calm     85% 0 mm
23:04 2.7 °C 0.4 °C 1025.3 hPa Calm     85% 0 mm
23:09 2.6 °C 0.4 °C 1025.6 hPa Calm     86% 0 mm
23:19 2.5 °C 0.4 °C 1025.6 hPa Calm     86% 0 mm
23:24 2.4 °C 0.5 °C 1025.6 hPa Calm     87% 0 mm
23:29 2.4 °C 0.5 °C 1025.6 hPa Calm     87% 0 mm
23:34 2.5 °C 0.6 °C 1025.6 hPa Calm     87% 0 mm
23:39 2.6 °C 0.7 °C 1025.6 hPa Calm     87% 0 mm
23:44 2.7 °C 0.7 °C 1025.6 hPa Calm     87% 0 mm
23:49 2.7 °C 0.7 °C 1025.3 hPa Calm     87% 0 mm
23:54 2.6 °C 0.5 °C 1025.3 hPa Calm     86% 0 mm
23:59 2.6 °C 0.6 °C 1025.6 hPa Calm     87% 0 mm
Buffalo, New York, USA
Compliments of Weather Underground - 2.5 mb